This is the latest recevied weather packets stored in our database for station/object WA9SDJ-13. If no packets are shown the sender has not sent any weather packets the latest 10 day(s).
| Time | Temp. | Humidity | Pressure | Rain* | Wind** | Luminosity | Snow |
|---|---|---|---|---|---|---|---|
| 1777988222 | 14.44° C | 87% | 1007.9 hPa | 0.25 mm | - | 11 W/m² | - |
| 1777988162 | 14.44° C | 87% | 1007.7 hPa | 0.25 mm | - | 12 W/m² | - |
| 1777988101 | 14.44° C | 87% | 1007.5 hPa | 0 mm | - | 12 W/m² | - |
| 1777988042 | 14.44° C | 87% | 1007.4 hPa | 0 mm | - | 16 W/m² | - |
| 1777987982 | 14.44° C | 87% | 1007.3 hPa | 0 mm | - | 18 W/m² | - |
| 1777987923 | 14.44° C | 87% | 1007.3 hPa | 0 mm | - | 23 W/m² | - |
| 1777987862 | 14.44° C | 87% | 1007.2 hPa | 0 mm | - | 25 W/m² | - |
| 1777987802 | 13.89° C | 87% | 1007.1 hPa | 0 mm | - | 25 W/m² | - |
| 1777987742 | 13.89° C | 87% | 1007 hPa | 0 mm | - | 23 W/m² | - |
| 1777987682 | 13.89° C | 87% | 1007 hPa | 0 mm | - | 23 W/m² | - |
| 1777987621 | 13.89° C | 87% | 1006.9 hPa | 0 mm | - | 25 W/m² | - |
| 1777987562 | 13.89° C | 87% | 1007 hPa | 0 mm | - | 32 W/m² | - |
| 1777987502 | 13.89° C | 87% | 1007 hPa | 0 mm | - | 39 W/m² | - |
| 1777987442 | 13.89° C | 87% | 1007 hPa | 0 mm | - | 44 W/m² | - |
| 1777987383 | 13.89° C | 87% | 1007.1 hPa | 0 mm | - | 48 W/m² | - |
| 1777987322 | 13.89° C | 87% | 1007.2 hPa | 0 mm | - | 49 W/m² | - |
| 1777987262 | 13.89° C | 87% | 1007.2 hPa | 0 mm | - | 53 W/m² | - |
| 1777987203 | 13.89° C | 87% | 1007.2 hPa | 0 mm | - | 56 W/m² | - |
| 1777987143 | 13.89° C | 87% | 1007.2 hPa | 0 mm | - | 56 W/m² | - |
| 1777987081 | 13.89° C | 87% | 1007.3 hPa | 0 mm | - | 55 W/m² | - |
| 1777987023 | 13.89° C | 87% | 1007.2 hPa | 0 mm | - | 53 W/m² | - |
| 1777986962 | 13.89° C | 87% | 1007.2 hPa | 0 mm | - | 48 W/m² | - |
| 1777986902 | 13.89° C | 87% | 1007.3 hPa | 0 mm | - | 48 W/m² | - |
| 1777986842 | 13.89° C | 87% | 1007.2 hPa | 0 mm | - | 44 W/m² | - |
| 1777986782 | 13.89° C | 87% | 1007.3 hPa | 0 mm | - | 44 W/m² | - |
* Rain latest hour (hover to see other rain measurements)
** Current wind speed in m/s (hover to see current wind gust speed)